Showing default

APPLE, 12545

Orbit data source: Space-Track

APPLE, 12545 is a payload satellite owned by ISRO (IN) in GEO that was launched on Fri, 19 Jun 1981 UTC via an ARIANE 1 launch vehicle from the French Guiana (FRGUI). Payload-class satellites include a variety of spacecraft equipped with specific instruments for various scientific and technological missions. These include communications satellites like Starlink; space stations such as the ISS; scientific satellites like the Hubble; Earth observation satellites from companies like Planet Labs, Umbra, and HawkEye 360; GPS; miniature CubeSats for education and research; and military/defense satellites.

Not visible in the next 10 days
Identifier
12545, 1981-057B
Orbit
GEO
Country
Flag of ININ / IND
Related business
Manufacturer
ISRO SAC/Banga
Mission
Non-operational Civil Communications
Bus & Motor
APPLE, SLV-3-4
Mass
670 kg wet, 313 kg dry
Launch date (UTC)
1981-06-19 (44 years ago)
Launch vehicle
ARIANE 1
Launch site
French Guiana (FRGUI)
Object type
Payload
Rocket body
Debris
Shape & HBR
Cyl + 2 Pan, 1.0 m
Radar Cross Section
2.339 m², Large (>1 m²)

Expand to show TLE details & history
Last TLE update: 14 hours ago

TLE from 14 hours ago
0 APPLE
1 12545U 81057B   25261.15198500 -.00000126  00000-0  00000-0 0  9993
2 12545   7.6618 299.0086 0028025 221.0101 333.7181  1.00022753119664
Epoch: 2025-09-18T03:38Z
TLE epoch observation values (Epoch: 2025-09-18T03:38:51.503Z)
Latitude
-1.93049°
Longitude
81.45994°
Altitude
35,749.826 km
Speed
3.08 km/s
True Right ascension
08h 53m 58s
True Declination
-1° 55' 43"
Sunlit
Object was in daylight at epoch
Visualization orbit readout
Latitude
Unknown
Longitude
Unknown
Altitude
Unknown
Speed
Unknown
Apparent Right ascension
Unknown
Apparent Declination
Unknown
Sunlit
N/A
Visualization observer readout
Local Sidereal Time
10:54:30
Azimuth
Unknown
Elevation
Unknown
Doppler factor
Unknown
Orbital elements
Apogee altitude
35,975.959 km
Perigee altitude
35,739.228 km
Semi-major axis
42,235.73 km
Eccentricity
0.0028
Inclination
7.6618°
RAAN
299.0086°
Arg. of periapsis
221.0101°
True anomaly
333.57545°
Mean anomaly
333.7181°
Eccentric anomaly
333.64682°
Mean motion
0.25005 °/min
Orbital period
1,439.72 mins
BSTAR
0
Loading maneuver chart data...
Computing Atmospheric mass density...
Loading historical data...
Loading historical data...
Loading historical data...
Loading historical data...
Loading historical data...
Loading historical data...
Loading historical data...

Documentation

Showing up to 5 results
|